GW0378 Weather Reports


Display with metric or nautical units.
time (UTC)temp
F
wind
direction
speed
MPH
gust
MPH
rain 1hr
in
rain 24hr
in
rain mn
in
humidity
%
barometer
mb
20260505230556 61 49 3.0 11.0 0.00 0.00 0.00 28 1014.9
20260505230052 62 24 3.0 7.0 0.00 0.00 0.00 28 1015.4
20260505225549 61 302 8.0 18.0 0.00 0.00 0.00 27 1015.0
20260505225045 62 302 10.0 20.0 0.00 0.00 0.00 27 1014.9
20260505224542 62 273 7.0 12.0 0.00 0.00 0.00 28 1015.0
20260505224040 62 354 6.0 15.0 0.00 0.00 0.00 28 1014.9
20260505223537 62 282 4.0 10.0 0.00 0.00 0.00 28 1015.0
20260505223033 61 39 5.0 14.0 0.00 0.00 0.00 26 1014.8
20260505222529 62 346 6.0 18.0 0.00 0.00 0.00 27 1014.9
20260505222025 61 36 2.0 19.0 0.00 0.00 0.00 29 1015.1
20260505221523 61 340 8.0 11.0 0.00 0.00 0.00 28 1015.1
20260505221019 61 319 6.0 17.0 0.00 0.00 0.00 29 1015.0
20260505220516 62 350 9.0 14.0 0.00 0.00 0.00 29 1015.0
20260505220014 62 309 6.0 12.0 0.00 0.00 0.00 28 1015.4
20260505215512 62 330 6.0 15.0 0.00 0.00 0.00 30 1015.1
20260505215010 62 315 5.0 12.0 0.00 0.00 0.00 31 1015.1
20260505214508 62 334 4.0 15.0 0.00 0.00 0.00 32 1015.0
20260505214004 61 286 10.0 17.0 0.00 0.00 0.00 32 1014.8
20260505213502 61 279 3.0 16.0 0.00 0.00 0.00 31 1014.9
20260505212958 62 353 4.0 13.0 0.00 0.00 0.00 29 1015.0
20260505212455 62 237 13.0 18.0 0.00 0.00 0.00 31 1014.8
20260505211951 62 290 6.0 13.0 0.00 0.00 0.00 33 1014.8
20260505211449 62 14 5.0 9.0 0.00 0.00 0.00 31 1014.8
20260505210945 62 262 6.0 11.0 0.00 0.00 0.00 30 1015.0
20260505210442 62 7 6.0 15.0 0.00 0.00 0.00 28 1014.8
20260505205939 62 303 6.0 8.0 0.00 0.00 0.00 33 1014.8
20260505205438 62 13 5.0 12.0 0.00 0.00 0.00 31 1015.0
20260505204934 63 250 5.0 10.0 0.00 0.00 0.00 31 1015.1
20260505204432 62 279 3.0 9.0 0.00 0.00 0.00 34 1015.0
20260505203929 61 324 3.0 13.0 0.00 0.00 0.00 31 1015.0
20260505203425 61 356 5.0 8.0 0.00 0.00 0.00 33 1015.0
20260505202921 59 45 3.0 7.0 0.00 0.00 0.00 34 1015.1
20260505202418 59 180 2.0 6.0 0.00 0.00 0.00 34 1014.8
20260505201915 58 200 5.0 9.0 0.00 0.00 0.00 34 1015.1
20260505201412 59 341 4.0 5.0 0.00 0.00 0.00 32 1014.8
20260505200910 61 106 2.0 5.0 0.00 0.00 0.00 30 1015.2
20260505200407 59 267 6.0 9.0 0.00 0.00 0.00 32 1015.0
20260505195902 60 0 0.0 5.0 0.00 0.00 0.00 31 1015.1
20260505195400 58 140 2.0 7.0 0.00 0.00 0.00 31 1015.1
20260505194857 60 318 3.0 3.0 0.00 0.00 0.00 32 1015.2
20260505194354 59 255 5.0 9.0 0.00 0.00 0.00 33 1015.4
20260505193849 58 293 6.0 10.0 0.00 0.00 0.00 33 1015.1
20260505193347 58 254 6.0 11.0 0.00 0.00 0.00 35 1015.2
20260505192844 59 288 7.0 13.0 0.00 0.00 0.00 33 1015.4
20260505192342 59 83 3.0 4.0 0.00 0.00 0.00 29 1015.5
20260505191839 60 299 6.0 8.0 0.00 0.00 0.00 30 1015.6
20260505191338 59 268 6.0 8.0 0.00 0.00 0.00 33 1015.5
20260505190834 60 7 4.0 5.0 0.00 0.00 0.00 32 1015.6
20260505190330 59 270 2.0 9.0 0.00 0.00 0.00 32 1015.5
20260505185826 60 282 6.0 6.0 0.00 0.00 0.00 29 1015.8
20260505185322 59 307 5.0 5.0 0.00 0.00 0.00 35 1015.8
20260505184819 58 349 3.0 7.0 0.00 0.00 0.00 31 1015.8
20260505184316 59 315 5.0 6.0 0.00 0.00 0.00 30 1015.8
20260505183813 57 350 7.0 8.0 0.00 0.00 0.00 33 1015.8
20260505183310 58 21 4.0 7.0 0.00 0.00 0.00 29 1015.8
20260505182806 56 229 3.0 8.0 0.00 0.00 0.00 31 1015.8
20260505182306 56 352 0.0 5.0 0.00 0.00 0.00 29 1015.7
20260505181800 57 297 5.0 8.0 0.00 0.00 0.00 30 1016.0
20260505181257 57 346 5.0 11.0 0.00 0.00 0.00 30 1016.0
20260505180754 57 336 7.0 9.0 0.00 0.00 0.00 31 1016.0
20260505180250 58 298 4.0 7.0 0.00 0.00 0.00 35 1015.9
20260505175747 56 276 5.0 10.0 0.00 0.00 0.00 35 1015.9
20260505175243 56 322 4.0 9.0 0.00 0.00 0.00 32 1015.9
20260505174740 57 244 0.0 9.0 0.00 0.00 0.00 34 1016.0
20260505174237 57 270 3.0 5.0 0.00 0.00 0.00 35 1016.0
20260505173733 57 48 4.0 6.0 0.00 0.00 0.00 34 1015.9
20260505173230 56 17 4.0 7.0 0.00 0.00 0.00 34 1015.9
20260505172727 56 281 6.0 9.0 0.00 0.00 0.00 32 1016.0
20260505172224 57 23 3.0 7.0 0.00 0.00 0.00 32 1016.1
20260505171723 56 38 3.0 6.0 0.00 0.00 0.00 32 1016.0
20260505171221 55 312 5.0 9.0 0.00 0.00 0.00 32 1016.2
20260505170717 57 351 4.0 7.0 0.00 0.00 0.00 35 1016.1
20260505170214 56 17 2.0 5.0 0.00 0.00 0.00 34 1016.1
20260505165710 56 74 2.0 7.0 0.00 0.00 0.00 35 1016.1
20260505165206 56 25 5.0 7.0 0.00 0.00 0.00 34 1016.2
20260505164701 56 21 5.0 7.0 0.00 0.00 0.00 35 1016.6
20260505164159 55 48 2.0 10.0 0.00 0.00 0.00 36 1016.2
20260505163657 55 40 3.0 8.0 0.00 0.00 0.00 33 1016.5
20260505163155 55 45 5.0 11.0 0.00 0.00 0.00 35 1016.6
20260505162652 55 90 5.0 7.0 0.00 0.00 0.00 35 1016.4
20260505162149 56 36 3.0 4.0 0.00 0.00 0.00 37 1016.6
20260505161646 55 56 4.0 8.0 0.00 0.00 0.00 37 1016.5
20260505161143 55 105 4.0 12.0 0.00 0.00 0.00 37 1016.6
20260505160641 55 26 3.0 10.0 0.00 0.00 0.00 37 1016.7
20260505160138 54 106 8.0 13.0 0.00 0.00 0.00 36 1016.7
20260505153118 54 109 10.0 14.0 0.00 0.00 0.00 38 1016.5
20260505152614 53 45 3.0 7.0 0.00 0.00 0.00 40 1016.7
20260505152110 53 68 6.0 13.0 0.00 0.00 0.00 39 1016.8
20260505151605 53 96 1.0 8.0 0.00 0.00 0.00 40 1016.7
20260505151103 52 103 5.0 9.0 0.00 0.00 0.00 40 1016.8
20260505150559 49 0 0.0 4.0 0.00 0.00 0.00 50 1016.9
20260505140525 43 236 2.0 3.0 0.00 0.00 0.00 57 1016.4
20260505124938 42 120 0.0 2.0 0.00 0.00 0.00 56 1015.7
20260505124435 43 192 0.0 3.0 0.00 0.00 0.00 54 1015.6
20260505123931 43 23 0.0 3.0 0.00 0.00 0.00 54 1015.6
20260505123428 43 74 2.0 5.0 0.00 0.00 0.00 55 1015.4
20260505122923 43 98 3.0 5.0 0.00 0.00 0.00 54 1015.6
20260505122421 43 270 1.0 4.0 0.00 0.00 0.00 53 1015.6
20260505121918 43 180 2.0 5.0 0.00 0.00 0.00 53 1015.5
20260505121415 43 260 0.0 2.0 0.00 0.00 0.00 53 1015.4
20260505120910 43 156 2.0 3.0 0.00 0.00 0.00 53 1015.5
20260505120407 42 117 0.0 2.0 0.00 0.00 0.00 55 1015.7
20260505115906 43 164 0.0 3.0 0.00 0.00 0.00 54 1015.6
20260505115403 42 341 2.0 4.0 0.00 0.00 0.00 54 1015.5
20260505114901 42 168 2.0 2.0 0.00 0.00 0.00 55 1015.5
20260505114357 42 120 1.0 2.0 0.00 0.00 0.00 56 1015.6
20260505113853 42 126 1.0 2.0 0.00 0.00 0.00 57 1015.6
20260505113350 42 194 0.0 3.0 0.00 0.00 0.00 55 1015.9
20260505112846 42 154 2.0 3.0 0.00 0.00 0.00 55 1015.9
20260505112344 42 196 2.0 2.0 0.00 0.00 0.00 54 1015.6
20260505111839 42 262 0.0 2.0 0.00 0.00 0.00 56 1015.7
20260505111335 41 123 0.0 1.0 0.00 0.00 0.00 57 1015.7
20260505110831 41 109 2.0 3.0 0.00 0.00 0.00 60 1015.8
20260505110328 42 356 2.0 2.0 0.00 0.00 0.00 56 1015.5
20260505101803 43 166 2.0 2.0 0.00 0.00 0.00 53 1015.4
20260505101258 43 15 0.0 3.0 0.00 0.00 0.00 52 1015.7
20260505100755 43 63 0.0 2.0 0.00 0.00 0.00 53 1015.6
20260505100251 42 135 2.0 2.0 0.00 0.00 0.00 54 1015.5
20260505095747 42 157 2.0 2.0 0.00 0.00 0.00 54 1015.2
20260505095245 42 166 2.0 3.0 0.00 0.00 0.00 55 1015.7
20260505094740 42 111 1.0 2.0 0.00 0.00 0.00 53 1015.7
20260505094237 42 61 2.0 3.0 0.00 0.00 0.00 54 1015.5
20260505093733 42 114 1.0 3.0 0.00 0.00 0.00 54 1015.2
20260505093231 42 90 1.0 2.0 0.00 0.00 0.00 54 1015.2
20260505092728 42 60 2.0 3.0 0.00 0.00 0.00 54 1015.7
20260505092227 43 94 3.0 3.0 0.00 0.00 0.00 54 1015.5
20260505091723 43 105 2.0 3.0 0.00 0.00 0.00 53 1015.2
20260505091221 43 94 3.0 3.0 0.00 0.00 0.00 53 1015.4
20260505090719 44 117 2.0 3.0 0.00 0.00 0.00 52 1015.5
20260505090217 44 94 2.0 4.0 0.00 0.00 0.00 51 1015.6
20260505085714 44 115 3.0 4.0 0.00 0.00 0.00 53 1015.4
20260505085212 44 135 0.0 0.0 0.00 0.00 0.00 52 1015.5
20260505084709 44 145 0.0 2.0 0.00 0.00 0.00 52 1015.6
20260505084208 44 108 3.0 3.0 0.00 0.00 0.00 54 1015.5
20260505083704 45 105 2.0 3.0 0.00 0.00 0.00 54 1015.2
20260505083201 45 81 2.0 3.0 0.00 0.00 0.00 54 1015.6
20260505082657 45 98 0.0 2.0 0.00 0.00 0.00 53 1015.4
20260505082155 46 114 1.0 3.0 0.00 0.00 0.00 51 1015.5
20260505081650 47 90 0.0 3.0 0.00 0.00 0.00 49 1015.5
20260505081148 46 87 3.0 5.0 0.00 0.00 0.00 50 1015.4
20260505080645 46 180 2.0 2.0 0.00 0.00 0.00 50 1015.2
20260505080141 47 105 4.0 5.0 0.00 0.00 0.00 52 1015.6
20260505075637 48 93 3.0 8.0 0.00 0.00 0.00 48 1015.7
20260505075133 46 102 4.0 4.0 0.00 0.00 0.00 47 1015.6
20260505074630 47 291 1.0 1.0 0.00 0.00 0.00 47 1015.7
20260505074127 48 254 3.0 3.0 0.00 0.00 0.00 46 1015.6
20260505073625 48 346 2.0 4.0 0.00 0.00 0.00 45 1015.8
20260505073123 48 81 0.0 2.0 0.00 0.00 0.00 46 1015.4
20260505072619 48 78 1.0 2.0 0.00 0.00 0.00 47 1015.4
20260505072116 48 33 5.0 5.0 0.00 0.00 0.00 46 1015.4
20260505071611 49 65 4.0 7.0 0.00 0.00 0.00 45 1015.2
20260505071109 49 113 2.0 11.0 0.00 0.00 0.00 44 1015.2
20260505070606 49 162 1.0 8.0 0.00 0.00 0.00 45 1015.5
20260505065558 49 99 2.0 9.0 0.00 0.00 0.00 45 1015.2
20260505065055 49 155 5.0 13.0 0.00 0.00 0.00 45 1015.4
20260505064551 49 125 4.0 11.0 0.00 0.00 0.00 45 1015.4
20260505064050 49 110 8.0 11.0 0.00 0.00 0.00 45 1015.5
20260505063547 49 165 0.0 12.0 0.00 0.00 0.00 46 1015.1
20260505063043 49 115 2.0 7.0 0.00 0.00 0.00 46 1015.2
20260505062540 49 15 2.0 5.0 0.00 0.00 0.00 47 1015.1
20260505062037 49 104 4.0 8.0 0.00 0.00 0.00 47 1015.1
20260505061534 50 85 8.0 13.0 0.00 0.00 0.00 45 1014.9
20260505061032 50 109 7.0 21.0 0.00 0.00 0.00 46 1015.0
20260505060529 50 331 3.0 8.0 0.00 0.00 0.00 47 1014.8
20260505060026 50 125 14.0 19.0 0.00 0.00 0.00 46 1015.0
20260505055521 50 117 9.0 25.0 0.00 0.00 0.00 46 1014.6
20260505055018 51 129 8.0 17.0 0.00 0.00 0.00 45 1014.6
20260505054516 51 122 10.0 17.0 0.00 0.00 0.00 46 1014.5
20260505054014 51 102 13.0 24.0 0.00 0.00 0.00 46 1014.4
20260505053511 51 128 11.0 21.0 0.00 0.00 0.00 46 1014.4
20260505053007 51 132 17.0 21.0 0.00 0.00 0.00 46 1014.1
20260505052505 51 110 10.0 26.0 0.00 0.00 0.00 47 1013.8
20260505052002 51 123 13.0 21.0 0.00 0.00 0.00 46 1014.2
20260505051458 52 94 11.0 27.0 0.00 0.00 0.00 46 1014.1
20260505050957 52 116 17.0 20.0 0.00 0.00 0.00 46 1014.2
20260505050454 52 79 8.0 24.0 0.00 0.00 0.00 46 1014.1
20260505041422 53 95 5.0 18.0 0.00 0.00 0.00 48 1014.0
20260505040919 53 85 11.0 21.0 0.00 0.00 0.00 48 1013.7
20260505040417 54 110 6.0 24.0 0.00 0.00 0.00 47 1013.8
20260505035913 54 85 6.0 19.0 0.00 0.00 0.00 48 1013.7
20260505035409 54 116 26.0 26.0 0.00 0.00 0.00 47 1013.5
20260505034907 54 110 11.0 26.0 0.00 0.00 0.00 47 1013.5
20260505034403 54 127 20.0 20.0 0.00 0.00 0.00 47 1013.5
20260505033900 55 160 6.0 23.0 0.00 0.00 0.00 46 1013.6
20260505033357 55 136 10.0 20.0 0.00 0.00 0.00 46 1013.7
20260505032855 55 90 11.0 21.0 0.00 0.00 0.00 46 1013.5
20260505032351 55 101 18.0 22.0 0.00 0.00 0.00 46 1013.2
20260505031848 55 100 8.0 18.0 0.00 0.00 0.00 46 1013.2
20260505031345 55 97 10.0 19.0 0.00 0.00 0.00 46 1013.1
20260505030843 55 122 5.0 21.0 0.00 0.00 0.00 45 1013.1
20260505030338 55 114 14.0 19.0 0.00 0.00 0.00 45 1012.8
20260505025834 56 113 8.0 24.0 0.00 0.00 0.00 45 1013.0
20260505025332 56 97 14.0 23.0 0.00 0.00 0.00 45 1012.9
20260505024830 56 127 6.0 17.0 0.00 0.00 0.00 45 1013.1
20260505024327 57 114 16.0 16.0 0.00 0.00 0.00 44 1012.9
20260505023824 57 106 6.0 12.0 0.00 0.00 0.00 44 1012.9
20260505023321 57 85 5.0 15.0 0.00 0.00 0.00 45 1012.8
20260505022819 57 158 5.0 8.0 0.00 0.00 0.00 44 1012.7
20260505022315 57 96 8.0 12.0 0.00 0.00 0.00 44 1012.5
20260505021813 58 105 9.0 13.0 0.00 0.00 0.00 43 1012.5
20260505021309 58 51 6.0 20.0 0.00 0.00 0.00 43 1012.4
20260505020804 58 110 8.0 22.0 0.00 0.00 0.00 42 1012.5
20260505020301 58 81 7.0 19.0 0.00 0.00 0.00 42 1012.0
20260505015758 59 76 5.0 10.0 0.00 0.00 0.00 42 1012.1
20260505015255 59 112 6.0 10.0 0.00 0.00 0.00 41 1012.1
20260505014752 59 84 9.0 16.0 0.00 0.00 0.00 41 1012.0
20260505014249 60 82 5.0 18.0 0.00 0.00 0.00 40 1012.3
20260505013745 60 83 6.0 15.0 0.00 0.00 0.00 40 1012.3
20260505013243 60 63 5.0 8.0 0.00 0.00 0.00 40 1011.9
20260505012741 60 94 5.0 14.0 0.00 0.00 0.00 39 1011.8
20260505012238 61 81 4.0 16.0 0.00 0.00 0.00 39 1012.0
20260505011733 61 99 8.0 20.0 0.00 0.00 0.00 38 1011.8
20260505011231 61 105 5.0 7.0 0.00 0.00 0.00 38 1011.8
20260505010726 62 109 11.0 15.0 0.00 0.00 0.00 38 1011.7
20260505010223 62 50 3.0 9.0 0.00 0.00 0.00 39 1011.7
20260505005719 63 22 6.0 9.0 0.00 0.00 0.00 39 1011.8
20260505005216 62 83 10.0 12.0 0.00 0.00 0.00 38 1011.8
20260505004714 61 96 5.0 11.0 0.00 0.00 0.00 40 1011.8
20260505004210 62 56 2.0 6.0 0.00 0.00 0.00 39 1011.9
20260505003707 62 102 5.0 13.0 0.00 0.00 0.00 39 1011.9
20260505003205 62 45 5.0 10.0 0.00 0.00 0.00 39 1011.8
20260505002701 63 46 5.0 12.0 0.00 0.00 0.00 39 1011.9
20260505002159 63 103 3.0 9.0 0.00 0.00 0.00 38 1011.8
20260505001656 64 93 3.0 11.0 0.00 0.00 0.00 39 1011.6
20260505001153 65 59 2.0 9.0 0.00 0.00 0.00 38 1011.7
20260505000650 65 56 2.0 9.0 0.00 0.00 0.00 38 1011.6
20260505000148 66 60 6.0 14.0 0.00 0.00 0.00 38 1011.6
20260504235644 66 29 4.0 9.0 0.00 0.00 0.00 36 1011.6
20260504235141 66 357 2.0 14.0 0.00 0.00 0.00 37 1011.5
20260504234638 66 26 1.0 5.0 0.00 0.00 0.00 38 1011.3
20260504234136 65 52 5.0 10.0 0.00 0.00 0.00 37 1011.4
20260504233631 66 80 2.0 7.0 0.00 0.00 0.00 39 1011.4
20260504233127 65 67 5.0 9.0 0.00 0.00 0.00 38 1011.4
20260504232625 65 81 4.0 10.0 0.00 0.00 0.00 39 1011.6
20260504232122 65 64 5.0 8.0 0.00 0.00 0.00 38 1011.5
20260504231618 65 51 8.0 11.0 0.00 0.00 0.00 37 1011.4
20260504231115 66 45 2.0 9.0 0.00 0.00 0.00 38 1011.5